Charlotte, NC

3:43 AM EST on November 25, 2017 (GMT -0500)
Charlotte-Douglas International

Weather History for KCLT - May, 2014

Change the Weather History Date:

Thursday, May 15, 2014

  Actual Average Record
Temperature  
Mean Temperature 67 °F 67 °F  
Max Temperature 73 °F 79 °F 94 °F (1962)
Min Temperature 60 °F 56 °F 40 °F (1888)
Degree Days  
Heating Degree Days 0 2  
Month to date heating degree days 11 37  
Since 1 July heating degree days 3373 3369  
Cooling Degree Days 2 4  
Month to date cooling degree days 85 40  
Year to date cooling degree days 124 77  
Growing Degree Days 17 (Base 50)    
Moisture  
Dew Point 65 °F    
Average Humidity 83    
Maximum Humidity 93    
Minimum Humidity 73    
Precipitation  
Precipitation 2.11 in 0.10 in 2.11 in (2014)
Month to date precipitation 2.70 1.48  
Year to date precipitation 21.44 15.26  
Snow  
Snow 0.00 in 0.00 in T in (2003)
Month to date snowfall T 0.0  
Since 1 July snowfall 9.3 4.3  
Snow Depth 0.00 in    
Sea Level Pressure  
Sea Level Pressure 29.95 in    
Wind  
Wind Speed 10 mph (South)    
Max Wind Speed 21 mph    
Max Gust Speed 26 mph    
Visibility 8 miles    
Events Fog , Rain , Thunderstorm    
T = Trace of Precipitation, MM = Missing Value Source: NWS Daily Summary

Daily Weather History Graph

Daily Weather History Graph

Search for Another Location

Airport or City:

Trip Planner

Search our weather history database for the weather conditions in past years. The results will help you decide how hot, cold, wet, or windy it might be!

Date:

Astronomy

May. 15, 2014 Rise Set
Actual Time 6:19 AM EDT 8:20 PM EDT
Civil Twilight 5:51 AM EDT 8:49 PM EDT
Nautical Twilight 5:17 AM EDT 9:23 PM EDT
Astronomical Twilight 4:40 AM EDT 10:00 PM EDT
Moon 9:27 PM EDT (5/15) 7:04 AM EDT (5/15)
Length of Visible Light 14h 57m
Length of Day
14h 01m
Full, 99% of the Moon is Illuminated
May 15
Full
May 21
Last Quarter
May 28
New
Jun 5
First Quarter
Jun 13
Full

Hourly Weather History & Observations

Time (EDT) Temp. Dew Point Humidity Pressure Visibility Wind Dir Wind Speed Gust Speed Precip Events Conditions
12:52 AM 72.0 °F 62.1 °F 71% 30.03 in 10.0 mi SE 18.4 mph 26.5 mph N/A   Overcast
1:09 AM 71.6 °F 62.6 °F 73% 30.05 in 10.0 mi SSE 13.8 mph - N/A   Overcast
1:52 AM 72.0 °F 64.0 °F 76% 30.02 in 10.0 mi SSE 17.3 mph - N/A   Overcast
2:52 AM 72.0 °F 64.0 °F 76% 30.00 in 10.0 mi SSE 19.6 mph - 0.00 in   Overcast
3:08 AM 69.8 °F 64.4 °F 83% 30.02 in 5.0 mi South 16.1 mph 23.0 mph 0.01 in Rain , Thunderstorm Thunderstorms and Rain
3:31 AM 69.8 °F 66.2 °F 88% 30.01 in 10.0 mi SSE 12.7 mph - 0.01 in   Overcast
3:52 AM 70.0 °F 66.0 °F 87% 29.98 in 10.0 mi SSE 16.1 mph - 0.01 in   Overcast
4:52 AM 71.1 °F 66.0 °F 84% 29.97 in 10.0 mi SSE 16.1 mph - N/A   Overcast
5:52 AM 71.1 °F 66.0 °F 84% 29.95 in 10.0 mi SSE 17.3 mph - 0.00 in   Overcast
6:26 AM 71.6 °F 66.2 °F 83% 29.98 in 9.0 mi SSE 12.7 mph - 0.00 in Rain , Thunderstorm Light Thunderstorms and Rain
6:44 AM 69.8 °F 66.2 °F 88% 29.98 in 2.0 mi South 6.9 mph - 0.07 in Rain , Thunderstorm Heavy Thunderstorms and Rain
6:52 AM 69.1 °F 66.9 °F 93% 29.93 in 0.5 mi West 13.8 mph 20.7 mph 0.37 in Fog , Rain , Thunderstorm Heavy Thunderstorms and Rain
6:56 AM 66.2 °F 64.4 °F 94% 29.97 in 0.2 mi WSW 16.1 mph 25.3 mph 0.22 in Fog , Rain , Thunderstorm Heavy Thunderstorms and Rain
7:14 AM 66.2 °F 64.4 °F 94% 29.98 in 2.0 mi SW 6.9 mph - 0.67 in Rain , Thunderstorm Thunderstorms and Rain
7:22 AM 66.2 °F 64.4 °F 94% 29.99 in 7.0 mi South 6.9 mph - 0.69 in Rain , Thunderstorm Light Thunderstorms and Rain
7:27 AM 66.2 °F 64.4 °F 94% 29.99 in 10.0 mi South 6.9 mph - 0.69 in Rain Light Rain
7:52 AM 66.9 °F 64.9 °F 93% 29.98 in 10.0 mi SSW 5.8 mph - 0.69 in Rain Light Rain
8:11 AM 66.2 °F 64.4 °F 94% 30.00 in 2.5 mi SSW 6.9 mph - 0.07 in Rain Rain
8:16 AM 66.2 °F 64.4 °F 94% 30.00 in 4.0 mi SSW 6.9 mph - 0.09 in Rain Rain
8:44 AM 66.2 °F 64.4 °F 94% 30.01 in 2.0 mi South 9.2 mph - 0.21 in Rain Heavy Rain
8:52 AM 66.9 °F 64.0 °F 90% 29.98 in 4.0 mi SSE 8.1 mph - 0.24 in Rain Rain
9:39 AM 66.2 °F 64.4 °F 94% 29.99 in 9.0 mi SSE 8.1 mph - 0.07 in Rain Light Rain
9:52 AM 68.0 °F 64.9 °F 90% 29.97 in 10.0 mi SSE 8.1 mph - 0.08 in Rain Light Rain
10:13 AM 68.0 °F 64.4 °F 88% 29.99 in 10.0 mi SE 11.5 mph - 0.01 in Rain Light Rain
10:29 AM 68.0 °F 64.4 °F 88% 29.99 in 6.0 mi SE 9.2 mph - 0.03 in Rain Rain
10:52 AM 68.0 °F 64.4 °F 88% 29.98 in 10.0 mi SE 9.2 mph - N/A Rain Light Rain
11:52 AM 69.1 °F 66.0 °F 90% 29.97 in 10.0 mi South 10.4 mph - 0.01 in   Overcast
12:52 PM 72.0 °F 66.9 °F 84% 29.94 in 10.0 mi South 9.2 mph - 0.00 in   Overcast
12:59 PM 71.6 °F 66.2 °F 83% 29.96 in 10.0 mi South 9.2 mph - N/A   Overcast
1:52 PM 72.0 °F 66.0 °F 81% 29.93 in 10.0 mi SSW 5.8 mph - N/A   Overcast
3:52 PM 71.1 °F 66.9 °F 87% 29.88 in 10.0 mi South 10.4 mph - 0.01 in Rain Light Rain
4:13 PM 69.8 °F 66.2 °F 88% 29.90 in 10.0 mi South 9.2 mph - 0.01 in Rain Light Rain
4:37 PM 69.8 °F 66.2 °F 88% 29.90 in 8.0 mi South 8.1 mph - 0.03 in Rain Rain
4:52 PM 70.0 °F 66.9 °F 90% 29.88 in 4.0 mi SSE 8.1 mph - 0.07 in Rain Rain
5:52 PM 70.0 °F 66.9 °F 90% 29.84 in 6.0 mi ESE 10.4 mph - 0.09 in Rain Rain
6:24 PM 69.8 °F 66.2 °F 88% 29.86 in 2.5 mi SE 11.5 mph - 0.05 in Rain Heavy Rain
6:52 PM 69.1 °F 66.9 °F 93% 29.83 in 1.8 mi SSE 10.4 mph - 0.22 in Rain Heavy Rain
7:45 PM 66.2 °F 64.4 °F 94% 29.86 in 7.0 mi WNW 4.6 mph - 0.17 in   Overcast
7:52 PM 66.9 °F 64.0 °F 90% 29.84 in 10.0 mi Calm Calm - 0.17 in   Overcast
8:52 PM 66.9 °F 64.0 °F 90% 29.86 in 6.0 mi Calm Calm - 0.02 in Rain Light Rain
9:52 PM 63.0 °F 59.0 °F 87% 29.88 in 9.0 mi NNW 9.2 mph - 0.06 in Rain Light Rain
10:52 PM 61.0 °F 57.9 °F 90% 29.90 in 10.0 mi NNW 9.2 mph - 0.00 in   Overcast
11:52 PM 60.8 °F 57.2 °F 88% 29.92 in 10.0 mi NNW 8.1 mph - N/A   Overcast